Orbital Elements at Epoch 2459200.5 (2020-Dec-17.0) TDB
Reference: JPL 20 (heliocentric ecliptic J2000)
Element | Value | Uncertainty (1-sigma) | Units |
e | .269502428687704 | 3.2038e-08 | |
a | 2.312606908696835 | 8.6318e-09 | au |
q | 1.689353730203075 | 7.3604e-08 | au |
i | 23.52493131916096 | 6.3392e-06 | deg |
node | 321.2597546989872 | 7.525e-06 | deg |
peri | 59.05354008575761 | 1.6169e-05 | deg |
M | 253.2908851454074 | 1.2579e-05 | deg |
tp | 2459581.258994840052 (2022-Jan-01.75899484) | 4.5865e-05 | TDB |
period | 1284.550418483013 3.52 | 7.1919e-06 1.969e-08 | d yr |
n | .2802536940707561 | 1.5691e-09 | deg/d |
Q | 2.935860087190596 | 1.0958e-08 | au |
|
| | Orbit Determination Parameters
Additional Information
|